Time,TemperatureF,DewpointF,PressureIn,WindDirection,WindDirectionDegrees,WindSpeedMPH,WindSpeedGustMPH,Humidity,HourlyPrecipIn,Conditions,Clouds,dailyrainin,SolarRadiationWatts/m^2,SoftwareType,DateUTC
2013-03-01 00:01:00,41.0,41.0,-100.00,SW,221,4.0,8.0,100,0.00,,,0.50,0.000000,,2013-03-01 08:01:00,
2013-03-01 00:11:00,41.0,41.0,-100.00,SW,221,4.0,8.0,100,0.00,,,0.50,0.000000,,2013-03-01 08:11:00,
2013-03-01 00:22:00,41.0,41.0,-100.00,SW,221,4.0,8.0,100,0.00,,,0.50,0.000000,,2013-03-01 08:22:00,
2013-03-01 00:32:00,41.0,41.0,-100.00,SW,221,4.0,8.0,100,0.00,,,0.50,0.000000,,2013-03-01 08:32:00,
2013-03-01 00:53:00,40.0,40.0,-100.00,ESE,123,7.0,10.0,100,0.01,,,0.51,0.000000,,2013-03-01 08:53:00,
2013-03-01 01:02:00,40.0,40.0,-100.00,ESE,123,7.0,10.0,100,0.01,,,0.51,0.000000,,2013-03-01 09:02:00,
2013-03-01 01:11:00,40.0,40.0,-100.00,ESE,123,7.0,10.0,100,0.01,,,0.51,0.000000,,2013-03-01 09:11:00,
2013-03-01 01:21:00,40.0,40.0,-100.00,ESE,123,7.0,10.0,100,0.01,,,0.51,0.000000,,2013-03-01 09:21:00,
2013-03-01 01:31:00,40.0,40.0,-100.00,ESE,123,7.0,10.0,100,0.01,,,0.51,0.000000,,2013-03-01 09:31:00,
2013-03-01 02:01:00,40.0,40.0,-100.00,SE,130,9.0,15.0,100,0.00,,,0.50,0.000000,,2013-03-01 10:01:00,
2013-03-01 02:11:00,40.0,40.0,-100.00,SE,130,9.0,15.0,100,0.00,,,0.50,0.000000,,2013-03-01 10:11:00,
2013-03-01 02:21:00,40.0,40.0,-100.00,SE,130,9.0,15.0,100,0.00,,,0.50,0.000000,,2013-03-01 10:21:00,
2013-03-01 02:31:00,40.0,40.0,-100.00,SE,130,9.0,15.0,100,0.00,,,0.50,0.000000,,2013-03-01 10:31:00,
2013-03-01 02:53:00,40.0,40.0,-100.00,SE,124,5.0,17.0,100,0.00,,,0.50,0.000000,,2013-03-01 10:53:00,
2013-03-01 03:01:00,40.0,40.0,-100.00,SE,124,5.0,17.0,100,0.00,,,0.50,0.000000,,2013-03-01 11:01:00,
2013-03-01 03:11:00,40.0,40.0,-100.00,SE,124,5.0,17.0,100,0.00,,,0.50,0.000000,,2013-03-01 11:11:00,
2013-03-01 03:22:00,40.0,40.0,-100.00,SE,124,5.0,17.0,100,0.00,,,0.50,0.000000,,2013-03-01 11:22:00,
2013-03-01 03:31:00,40.0,40.0,-100.00,SE,124,5.0,17.0,100,0.00,,,0.50,0.000000,,2013-03-01 11:31:00,
2013-03-01 04:01:00,38.0,38.0,-100.00,East,100,4.0,10.0,99,0.00,,,0.49,0.000000,,2013-03-01 12:01:00,
2013-03-01 04:11:00,38.0,38.0,-100.00,East,100,4.0,10.0,99,0.00,,,0.49,0.000000,,2013-03-01 12:11:00,
2013-03-01 04:21:00,38.0,38.0,-100.00,East,100,4.0,10.0,99,0.00,,,0.49,0.000000,,2013-03-01 12:21:00,
2013-03-01 04:32:00,38.0,38.0,-100.00,East,100,4.0,10.0,99,0.00,,,0.49,0.000000,,2013-03-01 12:32:00,
2013-03-01 05:01:00,37.0,36.0,-100.00,East,95,7.0,12.0,98,0.00,,,0.45,0.000000,,2013-03-01 13:01:00,
2013-03-01 05:11:00,37.0,36.0,-100.00,East,95,7.0,12.0,98,0.00,,,0.45,0.000000,,2013-03-01 13:11:00,
2013-03-01 05:21:00,37.0,36.0,-100.00,East,95,7.0,12.0,98,0.00,,,0.45,0.000000,,2013-03-01 13:21:00,
2013-03-01 05:32:00,37.0,36.0,-100.00,East,95,7.0,12.0,98,0.00,,,0.45,0.000000,,2013-03-01 13:32:00,
2013-03-01 06:01:00,36.0,35.0,-100.00,ESE,116,9.0,12.0,96,0.00,,,0.40,0.000000,,2013-03-01 14:01:00,
2013-03-01 06:11:00,36.0,35.0,-100.00,ESE,116,9.0,12.0,96,0.00,,,0.40,0.000000,,2013-03-01 14:11:00,
2013-03-01 06:21:00,36.0,35.0,-100.00,ESE,116,9.0,12.0,96,0.00,,,0.40,0.000000,,2013-03-01 14:21:00,
2013-03-01 06:32:00,36.0,35.0,-100.00,ESE,116,9.0,12.0,96,0.00,,,0.40,0.000000,,2013-03-01 14:32:00,
2013-03-01 07:01:00,36.0,35.0,-100.00,ESE,114,10.0,16.0,95,0.00,,,0.35,1.000000,,2013-03-01 15:01:00,
2013-03-01 07:11:00,36.0,35.0,-100.00,ESE,114,10.0,16.0,95,0.00,,,0.35,1.000000,,2013-03-01 15:11:00,
2013-03-01 07:21:00,36.0,35.0,-100.00,ESE,114,10.0,16.0,95,0.00,,,0.35,1.000000,,2013-03-01 15:21:00,
2013-03-01 07:31:00,36.0,35.0,-100.00,ESE,114,10.0,16.0,95,0.00,,,0.35,1.000000,,2013-03-01 15:31:00,
2013-03-01 07:52:00,36.0,35.0,-100.00,ESE,105,5.0,17.0,97,0.00,,,0.28,20.000000,,2013-03-01 15:52:00,
2013-03-01 08:01:00,36.0,35.0,-100.00,ESE,105,5.0,17.0,97,0.00,,,0.28,20.000000,,2013-03-01 16:01:00,
2013-03-01 08:11:00,36.0,35.0,-100.00,ESE,105,5.0,17.0,97,0.00,,,0.28,20.000000,,2013-03-01 16:11:00,
2013-03-01 08:21:00,36.0,35.0,-100.00,ESE,105,5.0,17.0,97,0.00,,,0.28,20.000000,,2013-03-01 16:21:00,
2013-03-01 08:31:00,36.0,35.0,-100.00,ESE,105,5.0,17.0,97,0.00,,,0.28,20.000000,,2013-03-01 16:31:00,
2013-03-01 09:01:00,43.0,39.0,-100.00,East,86,6.0,12.0,85,0.00,,,0.24,207.000000,,2013-03-01 17:01:00,
2013-03-01 09:11:00,43.0,39.0,-100.00,East,86,6.0,12.0,85,0.00,,,0.24,207.000000,,2013-03-01 17:11:00,
2013-03-01 09:21:00,43.0,39.0,-100.00,East,86,6.0,12.0,85,0.00,,,0.24,207.000000,,2013-03-01 17:21:00,
2013-03-01 09:31:00,43.0,39.0,-100.00,East,86,6.0,12.0,85,0.00,,,0.24,207.000000,,2013-03-01 17:31:00,
2013-03-01 10:01:00,49.0,42.0,-100.00,East,88,5.0,12.0,77,0.00,,,0.22,332.000000,,2013-03-01 18:01:00,
2013-03-01 10:12:00,49.0,42.0,-100.00,East,88,5.0,12.0,77,0.00,,,0.22,332.000000,,2013-03-01 18:12:00,
2013-03-01 10:22:00,49.0,42.0,-100.00,East,88,5.0,12.0,77,0.00,,,0.22,332.000000,,2013-03-01 18:22:00,
2013-03-01 10:31:00,49.0,42.0,-100.00,East,88,5.0,12.0,77,0.00,,,0.22,332.000000,,2013-03-01 18:31:00,
2013-03-01 10:52:00,52.0,43.0,-100.00,ENE,77,6.0,11.0,71,0.00,,,0.19,419.000000,,2013-03-01 18:52:00,
2013-03-01 11:01:00,52.0,43.0,-100.00,ENE,77,6.0,11.0,71,0.00,,,0.19,419.000000,,2013-03-01 19:01:00,
2013-03-01 11:11:00,52.0,43.0,-100.00,ENE,77,6.0,11.0,71,0.00,,,0.19,419.000000,,2013-03-01 19:11:00,
2013-03-01 11:21:00,52.0,43.0,-100.00,ENE,77,6.0,11.0,71,0.00,,,0.19,419.000000,,2013-03-01 19:21:00,
2013-03-01 11:31:00,52.0,43.0,-100.00,ENE,77,6.0,11.0,71,0.00,,,0.19,419.000000,,2013-03-01 19:31:00,
2013-03-01 12:01:00,51.0,45.0,-100.00,NW,305,7.0,13.0,80,0.00,,,0.15,454.000000,,2013-03-01 20:01:00,
2013-03-01 12:11:00,51.0,45.0,-100.00,NW,305,7.0,13.0,80,0.00,,,0.15,454.000000,,2013-03-01 20:11:00,
2013-03-01 12:21:00,51.0,45.0,-100.00,NW,305,7.0,13.0,80,0.00,,,0.15,454.000000,,2013-03-01 20:21:00,
2013-03-01 12:31:00,51.0,45.0,-100.00,NW,305,7.0,13.0,80,0.00,,,0.15,454.000000,,2013-03-01 20:31:00,
2013-03-01 13:01:00,53.0,39.0,-100.00,WNW,294,11.0,20.0,60,0.00,,,0.13,437.000000,,2013-03-01 21:01:00,
2013-03-01 13:11:00,53.0,39.0,-100.00,WNW,294,11.0,20.0,60,0.00,,,0.13,437.000000,,2013-03-01 21:11:00,
2013-03-01 13:21:00,53.0,39.0,-100.00,WNW,294,11.0,20.0,60,0.00,,,0.13,437.000000,,2013-03-01 21:21:00,
2013-03-01 13:31:00,53.0,39.0,-100.00,WNW,294,11.0,20.0,60,0.00,,,0.13,437.000000,,2013-03-01 21:31:00,
2013-03-01 13:52:00,56.0,42.0,-100.00,NE,55,6.0,16.0,59,0.00,,,0.09,549.000000,,2013-03-01 21:52:00,
2013-03-01 14:01:00,56.0,42.0,-100.00,NE,55,6.0,16.0,59,0.00,,,0.09,549.000000,,2013-03-01 22:01:00,
2013-03-01 14:11:00,56.0,42.0,-100.00,NE,55,6.0,16.0,59,0.00,,,0.09,549.000000,,2013-03-01 22:11:00,
2013-03-01 14:21:00,56.0,42.0,-100.00,NE,55,6.0,16.0,59,0.00,,,0.09,549.000000,,2013-03-01 22:21:00,
2013-03-01 14:31:00,56.0,42.0,-100.00,NE,55,6.0,16.0,59,0.00,,,0.09,549.000000,,2013-03-01 22:31:00,
2013-03-01 14:52:00,57.0,44.0,-100.00,NNE,33,6.0,11.0,61,0.00,,,0.06,548.000000,,2013-03-01 22:52:00,
2013-03-01 15:01:00,57.0,44.0,-100.00,NNE,33,6.0,11.0,61,0.00,,,0.06,548.000000,,2013-03-01 23:01:00,
2013-03-01 15:11:00,57.0,44.0,-100.00,NNE,33,6.0,11.0,61,0.00,,,0.06,548.000000,,2013-03-01 23:11:00,
2013-03-01 15:21:00,57.0,44.0,-100.00,NNE,33,6.0,11.0,61,0.00,,,0.06,548.000000,,2013-03-01 23:21:00,
2013-03-01 15:31:00,57.0,44.0,-100.00,NNE,33,6.0,11.0,61,0.00,,,0.06,548.000000,,2013-03-01 23:31:00,
2013-03-01 15:52:00,58.0,45.0,-100.00,NW,315,6.0,13.0,61,0.00,,,0.03,499.000000,,2013-03-01 23:52:00,
2013-03-01 16:01:00,58.0,45.0,-100.00,NW,315,6.0,13.0,61,0.00,,,0.03,499.000000,,2013-03-02 00:01:00,
2013-03-01 16:11:00,58.0,45.0,-100.00,NW,315,6.0,13.0,61,0.00,,,0.03,499.000000,,2013-03-02 00:11:00,
2013-03-01 16:21:00,58.0,45.0,-100.00,NW,315,6.0,13.0,61,0.00,,,0.03,499.000000,,2013-03-02 00:21:00,
2013-03-01 16:31:00,58.0,45.0,-100.00,NW,315,6.0,13.0,61,0.00,,,0.03,499.000000,,2013-03-02 00:31:00,
2013-03-01 17:01:00,56.0,44.0,-100.00,NW,316,4.0,12.0,64,0.00,,,0.03,287.000000,,2013-03-02 01:01:00,
2013-03-01 17:11:00,56.0,44.0,-100.00,NW,316,4.0,12.0,64,0.00,,,0.03,287.000000,,2013-03-02 01:11:00,
2013-03-01 17:21:00,56.0,44.0,-100.00,NW,316,4.0,12.0,64,0.00,,,0.03,287.000000,,2013-03-02 01:21:00,
2013-03-01 17:31:00,56.0,44.0,-100.00,NW,316,4.0,12.0,64,0.00,,,0.03,287.000000,,2013-03-02 01:31:00,
2013-03-01 18:01:00,51.0,44.0,-100.00,ENE,66,6.0,9.0,76,0.00,,,0.02,102.000000,,2013-03-02 02:01:00,
2013-03-01 18:11:00,51.0,44.0,-100.00,ENE,66,6.0,9.0,76,0.00,,,0.02,102.000000,,2013-03-02 02:11:00,
2013-03-01 18:21:00,51.0,44.0,-100.00,ENE,66,6.0,9.0,76,0.00,,,0.02,102.000000,,2013-03-02 02:21:00,
2013-03-01 18:31:00,51.0,44.0,-100.00,ENE,66,6.0,9.0,76,0.00,,,0.02,102.000000,,2013-03-02 02:31:00,
2013-03-01 19:01:00,46.0,42.0,-100.00,ESE,111,8.0,10.0,86,0.00,,,0.02,5.000000,,2013-03-02 03:01:00,
2013-03-01 19:11:00,46.0,42.0,-100.00,ESE,111,8.0,10.0,86,0.00,,,0.02,5.000000,,2013-03-02 03:11:00,
2013-03-01 19:21:00,46.0,42.0,-100.00,ESE,111,8.0,10.0,86,0.00,,,0.02,5.000000,,2013-03-02 03:21:00,
2013-03-01 19:32:00,46.0,42.0,-100.00,ESE,111,8.0,10.0,86,0.00,,,0.02,5.000000,,2013-03-02 03:32:00,
2013-03-01 20:01:00,46.0,43.0,-100.00,West,275,4.0,14.0,88,0.00,,,0.02,0.000000,,2013-03-02 04:01:00,
2013-03-01 20:11:00,46.0,43.0,-100.00,West,275,4.0,14.0,88,0.00,,,0.02,0.000000,,2013-03-02 04:11:00,
2013-03-01 20:21:00,46.0,43.0,-100.00,West,275,4.0,14.0,88,0.00,,,0.02,0.000000,,2013-03-02 04:21:00,
2013-03-01 20:31:00,46.0,43.0,-100.00,West,275,4.0,14.0,88,0.00,,,0.02,0.000000,,2013-03-02 04:31:00,
2013-03-01 21:01:00,43.0,38.0,-100.00,ESE,110,7.0,14.0,84,0.00,,,0.02,0.000000,,2013-03-02 05:01:00,
2013-03-01 21:12:00,43.0,38.0,-100.00,ESE,110,7.0,14.0,84,0.00,,,0.02,0.000000,,2013-03-02 05:12:00,
2013-03-01 21:22:00,43.0,38.0,-100.00,ESE,110,7.0,14.0,84,0.00,,,0.02,0.000000,,2013-03-02 05:22:00,
2013-03-01 21:31:00,43.0,38.0,-100.00,ESE,110,7.0,14.0,84,0.00,,,0.02,0.000000,,2013-03-02 05:31:00,
2013-03-01 22:01:00,43.0,37.0,-100.00,ESE,110,9.0,15.0,78,0.00,,,0.02,0.000000,,2013-03-02 06:01:00,
2013-03-01 22:11:00,43.0,37.0,-100.00,ESE,110,9.0,15.0,78,0.00,,,0.02,0.000000,,2013-03-02 06:11:00,
2013-03-01 22:21:00,43.0,37.0,-100.00,ESE,110,9.0,15.0,78,0.00,,,0.02,0.000000,,2013-03-02 06:21:00,
2013-03-01 22:31:00,43.0,37.0,-100.00,ESE,110,9.0,15.0,78,0.00,,,0.02,0.000000,,2013-03-02 06:31:00,
2013-03-01 22:52:00,39.0,35.0,-100.00,ESE,103,7.0,14.0,86,0.00,,,0.01,0.000000,,2013-03-02 06:52:00,
2013-03-01 23:01:00,39.0,35.0,-100.00,ESE,103,7.0,14.0,86,0.00,,,0.01,0.000000,,2013-03-02 07:01:00,
2013-03-01 23:11:00,39.0,35.0,-100.00,ESE,103,7.0,14.0,86,0.00,,,0.01,0.000000,,2013-03-02 07:11:00,
2013-03-01 23:21:00,39.0,35.0,-100.00,ESE,103,7.0,14.0,86,0.00,,,0.01,0.000000,,2013-03-02 07:21:00,
2013-03-01 23:32:00,39.0,35.0,-100.00,ESE,103,7.0,14.0,86,0.00,,,0.01,0.000000,,2013-03-02 07:32:00,